Regional Weather Roundup
Issued by NWS

Home | Current Version | Previous Version | Text Only | Print | Product List | Glossary Off
Versions: 1 2 3 4 5 6 7 8 9 10 11 12 13 14 15 16 17 18 19 20 21 22 23 24 25 26 27 28 29 30 31 32 33 34 35 36 37 38 39 40 41 42 43 44 45 46 47 48 49 50

000
ASUS43 KIND 260409
RWRIN

WEATHER ROUNDUP FOR INDIANA
NATIONAL WEATHER SERVICE INDIANAPOLIS IN
1100 PM EST SUN JAN 25 2015

NOTE: "FAIR" INDICATES FEW OR NO CLOUDS BELOW 12,000 FEET WITH NO
SIGNIFICANT WEATHER AND/OR OBSTRUCTIONS TO VISIBILITY.

* - STATION DOES NOT REPORT WEATHER SUCH AS PRECIPITATION OR FOG.

+ - STATION NOT QUALITY CONTROLLED BY THE NATIONAL WEATHER SERVICE.
    USE DATA WITH CAUTION...ESPECIALLY DEWPOINT AND RELATIVE
    HUMIDITY OBSERVATIONS.

INZ001>003-010>013-019-020-260500-
NORTHWEST INDIANA

CITY           SKY/WX    TMP DP  RH WIND       PRES   REMARKS
GARY /AIRPORT/ CLOUDY    28  17  64 NE12G18   29.98S WCI  17
KNOX *+        CLOUDY    25  10  54 N9        29.94R WCI  15
LA PORTE +     CLOUDY    25  17  71 NE13      29.96R WCI  14
MICHIGAN CITY+ PTCLDY    23  12  63 NE7       29.97S WCI  15
MONTICELLO +   CLOUDY    25  21  86 NE9       29.91R WCI  15
RENSSELAER +   CLOUDY    27  25  93 N15       29.94R WCI  15
VALPARAISO     CLOUDY    24  15  68 N10       29.95R WCI  14

$$

LMZ046-743>745-260500-
SOUTHERN LAKE MICHIGAN

STATION/POSITION TIME  TEMP WIND        PRES
                       AIR  DIR/SP/G
                 (UTC) (F)  (DEG/KT/KT) (MB)
MICHIGAN CITY    0400   24   20/ 18/ 20   N/A

$$

INZ004-005-014>016-021>024-260500-
NORTH CENTRAL INDIANA

CITY           SKY/WX    TMP DP  RH WIND       PRES   REMARKS
GOSHEN         CLOUDY    23  14  68 NE10      29.93R WCI  12
LOGANSPORT +   CLOUDY    25  21  86 NE7       29.91R WCI  17
PERU/GRISSOM   CLOUDY    22  17  81 NE15      29.88R WCI   9
ROCHESTER +    CLOUDY    27  21  80 NE9       29.92R WCI  17
SOUTH BEND     MOCLDY    22  13  68 NE14      29.96R WCI   9
WARSAW +       CLOUDY    23  19  86 NE10      29.91R WCI  12

$$

INZ006>009-017-018-025>027-260500-
NORTHEAST INDIANA

CITY           SKY/WX    TMP DP  RH WIND       PRES   REMARKS
ANGOLA *+      CLOUDY    19   9  63 NE10      29.89F WCI   8
AUBURN +       CLOUDY    21  14  73 NE10G16   29.91S WCI  10
FORT WAYNE     FLURRIES  19  14  81 NE16G24   29.90S WCI   4
HUNTINGTON +   CLOUDY    19  12  72 NE10G18   29.89S WCI   8

$$

INZ028-029-035-036-043>045-051>053-260500-
WEST CENTRAL INDIANA

CITY           SKY/WX    TMP DP  RH WIND       PRES   REMARKS
GREENCASTLE +  CLOUDY    27  19  74 N21       29.84R WCI  13
LAFAYETTE      CLOUDY    25  21  85 NE9       29.91R WCI  15
TERRE HAUTE    CLOUDY    28  23  81 N15G21    29.86R WCI  16

$$

INZ030>032-037>040-046>048-054>057-064-065-260500-
CENTRAL INDIANA

CITY           SKY/WX    TMP DP  RH WIND       PRES   REMARKS
CP ATTERBURY + CLOUDY    27  23  86 N13G18    29.80R WCI  16
INDIANAPOLIS   FLURRIES  21  18  88 NE18G31   29.82R WCI   6
-EAGLE CREEK   CLOUDY    22  18  85 N18G24    29.83R WCI   7
KOKOMO *+      CLOUDY    21  18  86 NE16      29.88R WCI   7
MARION +       CLOUDY    20  16  85 NE13      29.87R WCI   7
MT COMFORT *+  CLOUDY    23  14  68 NE18      29.82R WCI   9
SHELBYVILLE    LGT SNOW  25  20  81 N16       29.79R WCI  12
ZIONSVILLE +   CLOUDY    23  18  80 NE17G23   29.84S WCI   9

$$

INZ033-034-041-042-049-050-058-059-260500-
EAST CENTRAL INDIANA

CITY           SKY/WX    TMP DP  RH WIND       PRES   REMARKS
MUNCIE         LGT SNOW  20  16  84 NE17G29   29.83R FOG     WCI   5

$$

INZ060-061-067>069-081>083-085>088-260500-
SOUTHWEST INDIANA

CITY           SKY/WX    TMP DP  RH WIND       PRES   REMARKS
EVANSVILLE     CLOUDY    38  35  89 N20G29    29.78R FOG
HUNTINGBURG *+ CLOUDY    37  34  87 N14G20    29.74R
WASHINGTON +   CLOUDY    32  27  83 N17       29.79R WCI  20

$$

INZ062-063-066-070>080-084-089>092-260500-
SOUTH CENTRAL AND SOUTHEAST INDIANA

CITY           SKY/WX    TMP DP  RH WIND       PRES   REMARKS
BLOOMINGTON    FLURRIES  27  24  89 N18       29.79R WCI  14

$$




USA.gov is the U.S. government's official web portal to all federal, state and local government web resources and services.